Vorticity
-16 4 2 24 14 4 4 -14 -12 6 24 14 5 4 7 6 7 9 10 9 7 5
13 12 24 26 17 28 24 24 13 11 3 6 7 6 6 7 10 11 10 7 5 5
4 7 6 6 9 2 20 4 -0 13 14 9 5 7 10 12 11 10 5 4 6 7
-0 7 5 7 2 1 19 26 10 7 8 5 7 11 12 10 7 6 6 7 5 4
5 11 4 4 3 5 5 8 8 7 8 12 12 12 8 6 6 7 5 4 5 7
14 12 10 9 7 9 12 12 9 11 12 10 9 7 7 7 5 4 5 6 7 8
7 7 8 10 12 10 10 11 10 10 8 7 7 7 4 4 5 6 7 8 10 12
12 12 12 12 9 9 10 10 8 9 9 9 5 6 5 5 6 8 10 12 12 11
5 4 6 8 11 13 10 10 9 9 6 6 5 4 5 7 9 10 11 10 10 10
12 12 11 11 11 10 10 10 6 6 4 3 4 6 8 9 10 9 9 8 8 8
9 9 9 10 11 11 6 4 3 2 2 5 9 9 10 9 8 7 7 9 10 10
9 9 10 10 9 6 5 5 3 3 4 9 7 6 9 10 11 12 12 11 11 12
10 10 10 8 6 3 2 0 2 3 7 7 5 11 10 10 10 11 11 10 12 12
13 12 10 8 7 5 4 4 1 3 7 14 8 13 10 13 13 13 9 9 11 8
Height
3097 3098 3102 3103 3108 3113 3111 3109 3110 3113 3112 3110 3113 3114 3114 3113 3112 3112 3112 3110 3109 3108
3092 3093 3096 3100 3103 3102 3103 3103 3104 3104 3104 3103 3102 3106 3107 3106 3106 3106 3104 3103 3102 3101
3088 3089 3093 3095 3097 3098 3097 3097 3097 3097 3094 3097 3099 3100 3101 3099 3098 3097 3097 3096 3095 3094
3088 3089 3090 3092 3092 3092 3090 3090 3089 3091 3091 3092 3092 3093 3094 3092 3091 3091 3090 3089 3089 3086
3080 3082 3084 3086 3086 3084 3085 3085 3084 3084 3085 3087 3087 3087 3087 3086 3085 3084 3083 3081 3080 3078
3077 3077 3078 3078 3079 3079 3079 3078 3078 3079 3079 3080 3080 3081 3081 3080 3079 3078 3076 3073 3070 3069
3071 3070 3070 3071 3071 3071 3071 3072 3072 3073 3073 3074 3074 3074 3073 3073 3072 3070 3067 3065 3062 3060
3064 3064 3064 3064 3064 3065 3066 3066 3066 3067 3067 3068 3069 3068 3068 3066 3063 3061 3058 3056 3054 3051
3059 3059 3059 3060 3060 3059 3059 3061 3062 3062 3062 3062 3062 3060 3058 3056 3053 3052 3050 3047 3044 3042
3052 3052 3052 3053 3053 3053 3054 3055 3055 3054 3054 3054 3053 3051 3050 3047 3045 3042 3040 3037 3035 3033
3046 3046 3046 3046 3046 3047 3048 3048 3048 3047 3047 3047 3046 3043 3040 3037 3035 3032 3030 3028 3026 3024
3041 3041 3041 3041 3041 3041 3042 3042 3041 3041 3039 3037 3035 3033 3031 3029 3026 3024 3022 3019 3016 3014
3035 3035 3035 3035 3035 3035 3035 3034 3033 3031 3029 3027 3026 3023 3021 3019 3016 3014 3011 3009 3007 3005
3028 3028 3028 3028 3028 3027 3026 3025 3023 3022 3021 3018 3015 3013 3011 3007 3005 3002 3000 2998 2997 2994